Location: *
(34.0486°S, 61.7880°E)
Time: 20:02:56
(UTC+00:00)

Okean 1-7 Rocket - Pass Details

Date: 01 April 2020
Orbit: 617 x 649 km, 82.5° (Epoch: 28 May)

Event Time Altitude Azimuth Distance (km) Brightness Sun altitude
Rises 15:26:34 0° 1° (N) 2,889 6.9 -21.3°
Reaches altitude 10° 15:28:47 10° 4° (N) 1,996 6.0 -21.8°
Enters shadow 15:28:54 11° 4° (N) 1,949 6.0 -21.8°
Exits shadow 15:34:22 46° 150° (SSE) 860 4.1 -22.9°
Drops below altitude 10° 15:37:40 10° 168° (SSE) 2,044 6.2 -23.6°
Sets 15:39:57 0° 170° (S) 2,966 7.1 -24.1°
